Location: Calvatone
(45.1167°N, 10.4333°E)
Time: 16:11:32
(UTC+00:00)

Meteor 2-1 Rocket - Pass Details

Date: 28 January 2023
Orbit: 830 x 906 km, 81.3° (Epoch: 30 March)

Event Time Altitude Azimuth Distance (km) Brightness Sun altitude
Rises 17:28:32 0° 353° (N) 3,519 7.4 -12.3°
Reaches altitude 10° 17:31:07 10° 359° (N) 2,565 6.6 -12.7°
Maximum altitude 17:36:46 49° 74° (ENE) 1,115 4.4 -13.7°
Drops below altitude 10° 17:42:16 10° 149° (SSE) 2,498 6.5 -14.6°
Sets 17:44:44 0° 155° (SSE) 3,419 7.2 -15.1°
